GFSFLT2_850_spd_099.txt.gz
Wind_Speed
29 26 25 22 23 28 35 37 32 27 23 20 25 24 23 22 22 23 24 22 20 17 16 15 15 17 19
27 27 30 22 24 28 30 26 30 27 25 26 26 25 24 23 24 25 20 19 18 19 17 16 16 17 20
32 27 25 29 27 27 35 36 31 29 28 28 27 26 25 25 26 20 17 17 19 18 19 17 17 19 21
30 29 30 32 31 31 33 37 34 32 32 29 28 28 26 24 22 20 19 20 19 18 17 17 17 19 18
31 34 32 35 37 40 39 38 33 32 32 31 30 28 25 24 21 21 19 18 18 17 18 18 16 18 13
34 38 36 36 38 40 37 35 34 35 34 33 31 31 25 23 22 21 20 19 19 20 17 15 17 13 10
31 36 37 37 43 43 43 40 36 37 33 35 33 30 26 23 23 21 20 18 18 17 15 16 13 11 9
32 34 33 34 44 40 38 38 36 35 30 26 27 26 24 24 25 23 21 19 18 17 16 14 11 11 12
27 28 29 35 36 36 36 33 35 35 31 27 24 21 20 24 24 23 22 20 19 18 16 13 12 12 14
27 27 26 27 32 38 39 41 39 33 31 27 23 20 16 23 23 23 23 22 19 17 16 14 13 16 18
28 27 26 28 32 31 35 38 40 35 30 29 28 26 21 9 23 25 24 22 18 19 15 14 16 18 19
27 27 27 29 26 33 33 35 34 31 27 27 25 26 28 24 17 20 21 22 21 20 15 16 17 21 22
30 29 28 28 29 30 29 33 29 26 24 24 21 19 18 23 28 20 17 20 22 22 17 17 16 19 22
29 29 26 25 29 31 31 31 29 28 30 26 23 21 22 26 21 19 19 15 24 23 19 19 18 19 20
23 24 27 25 26 29 30 32 32 35 34 30 27 26 24 23 22 20 20 24 16 24 24 22 21 19 20
18 18 25 25 26 26 29 32 36 36 34 31 32 30 26 24 23 20 21 22 22 20 26 23 22 21 20
16 15 19 20 25 25 28 32 35 34 31 30 31 30 29 28 26 24 21 23 23 23 25 25 23 21 20

GFSFLT2_850_spd_102.txt.gz
Wind_Speed
34 30 29 28 26 27 26 29 30 41 54 49 40 36 32 31 30 28 27 25 25 23 21 21 20 20 17
24 27 26 28 27 26 24 24 28 39 42 34 35 32 32 31 29 27 26 26 27 26 23 22 21 20 18
28 27 29 29 30 29 26 25 27 33 34 32 30 32 31 28 28 27 26 28 25 23 22 22 21 20 20
29 31 28 30 28 26 29 29 28 35 35 32 32 32 29 30 29 26 28 27 22 22 21 21 20 20 21
27 30 32 33 33 33 34 37 37 40 40 38 37 34 32 31 30 29 29 26 24 21 22 19 19 20 20
25 30 35 35 35 37 38 42 41 43 46 45 38 35 34 33 33 30 26 24 22 22 20 20 19 17 20
33 32 29 36 37 38 40 42 50 50 50 44 40 39 36 34 32 29 26 24 21 22 22 20 16 17 18
26 32 33 32 36 39 41 42 49 49 47 47 46 40 37 36 31 29 25 25 23 22 20 16 15 17 15
28 29 30 33 32 34 42 40 45 53 48 49 44 41 39 35 33 30 28 27 24 22 21 17 16 16 15
33 31 27 26 32 32 36 45 46 39 52 46 39 36 28 33 31 29 30 28 25 24 22 18 16 16 16
30 34 31 27 27 35 35 50 47 51 48 47 44 38 29 22 31 29 32 29 28 26 24 20 18 19 20
28 30 33 32 27 29 34 39 43 43 46 47 50 48 43 33 23 31 33 32 30 27 24 21 21 22 23
23 24 29 32 32 29 31 32 29 32 31 41 48 45 41 38 36 28 35 36 31 29 26 22 22 23 27
24 27 28 27 32 30 30 33 32 31 27 24 36 28 37 28 29 30 28 24 29 31 27 24 22 24 28
22 23 25 24 26 28 30 32 30 29 30 32 30 30 24 27 28 26 28 26 21 28 30 27 24 25 28
22 21 21 18 19 23 30 33 33 33 35 36 37 32 26 28 26 26 24 23 23 21 29 27 26 27 26
21 19 18 16 14 19 27 31 33 33 36 36 36 34 32 27 26 25 22 21 24 25 27 28 29 26 24

GFSFLT2_850_spd_105.txt.gz
Wind_Speed
40 41 40 45 36 29 33 37 38 38 40 44 45 44 44 47 38 33 32 29 28 28 25 22 22 24 21
25 45 45 36 26 26 27 25 29 28 33 35 37 38 45 48 36 33 32 29 30 27 26 24 25 25 23
18 22 23 23 25 27 27 29 30 30 28 27 27 40 46 45 36 35 32 31 29 27 26 26 24 25 25
23 17 20 25 28 27 29 31 29 29 27 27 32 35 31 31 34 35 33 30 28 27 26 25 24 25 25
22 24 29 27 26 27 34 30 32 29 30 28 33 34 33 33 33 33 32 29 29 27 25 26 26 25 24
19 21 23 24 25 29 29 32 34 32 34 38 40 41 41 40 37 36 31 29 28 27 26 26 23 25 25
21 21 21 23 24 26 30 32 32 35 35 43 45 46 45 44 40 35 30 30 30 28 27 27 24 24 23
24 25 24 23 23 24 25 33 33 36 35 38 45 49 49 48 43 38 35 33 32 31 28 26 25 24 22
22 24 25 30 30 29 30 29 37 39 36 37 41 46 50 48 45 40 36 34 33 28 25 24 24 22 20
29 30 28 28 26 30 31 29 35 38 38 37 41 45 43 51 46 41 37 34 31 28 28 26 24 21 19
31 29 30 29 27 25 27 31 32 40 37 31 39 44 41 34 50 45 41 37 34 31 29 27 25 22 19
27 26 25 26 22 23 25 28 31 33 41 35 37 43 52 40 36 46 42 37 35 34 32 29 26 24 22
24 25 25 27 28 28 25 28 30 31 32 38 37 39 39 45 50 45 47 41 39 36 34 32 29 26 26
25 25 27 28 29 27 25 25 25 29 28 33 40 42 44 47 41 39 44 46 45 39 36 31 28 26 28
24 23 26 27 27 24 22 21 22 24 26 33 31 35 35 43 40 34 39 42 34 41 36 32 29 26 28
23 24 25 26 23 24 21 18 20 20 22 31 32 33 29 28 30 32 32 34 32 38 36 35 31 28 28
22 22 23 22 21 21 18 15 16 19 23 30 33 36 34 27 25 23 30 33 32 31 31 33 34 30 29

GFSFLT2_850_spd_111.txt.gz
Wind_Speed
14 10 21 28 29 30 34 40 40 41 45 38 37 39 42 42 42 41 39 40 42 39 49 40 38 33 27
23 22 15 7 18 30 32 32 32 33 36 37 39 36 36 39 41 41 41 40 39 40 40 47 40 38 29
20 19 22 21 16 10 9 19 28 32 33 31 27 28 29 30 30 32 36 40 41 39 41 52 40 41 28
17 16 15 17 21 24 26 20 15 14 15 17 20 25 27 30 30 30 30 33 35 40 42 51 44 34 28
19 17 15 15 12 12 17 23 26 23 20 19 20 22 22 22 26 27 31 32 32 35 46 45 33 29 28
19 20 19 16 17 16 18 18 17 18 20 24 21 19 17 19 19 20 20 25 31 45 38 31 29 30 28
16 17 18 17 20 22 21 21 23 20 21 26 22 20 16 16 16 17 15 17 30 27 30 30 30 28 27
16 18 19 21 21 21 22 24 26 27 26 28 25 24 22 17 14 17 22 30 30 29 31 32 31 29 28
21 20 23 24 26 27 26 22 21 21 20 18 23 25 23 22 19 18 19 24 35 36 35 34 33 30 29
28 26 28 25 22 18 19 20 18 16 8 12 15 15 21 27 24 20 22 23 25 33 38 38 37 34 31
28 27 27 26 24 19 16 17 17 22 22 22 20 19 21 25 24 17 18 25 28 29 34 39 39 37 34
25 26 30 29 25 20 18 19 23 26 26 26 32 27 23 26 28 28 23 23 25 31 32 37 38 38 36
26 26 25 21 25 23 20 23 24 25 22 24 28 32 33 33 27 28 29 25 26 32 34 36 41 42 39
23 22 21 19 21 22 26 28 27 24 19 19 21 25 34 35 32 33 33 30 24 31 34 36 40 43 41
21 20 18 20 22 21 21 23 21 21 22 20 19 22 27 33 35 35 33 34 33 28 32 40 42 44 43
19 19 20 20 20 21 19 19 21 19 20 20 19 20 25 28 35 34 34 34 35 35 34 39 45 46 43
19 19 18 18 18 19 19 20 19 18 18 18 19 20 23 24 26 29 34 35 32 34 37 41 43 44 46